CW0198 Weather Reports


Display with metric or nautical units.
time (UTC)temp
F
wind
direction
speed
MPH
gust
MPH
rain 1hr
in
rain 24hr
in
rain mn
in
humidity
%
barometer
mb
20260508181540 70 241 0.0 5.0 0.00 0.41 0.01 47 1015.7
20260508180051 70 222 4.0 7.0 0.00 0.41 0.01 45 1016.0
20260508174520 71 254 1.0 8.0 0.00 0.41 0.01 47 1016.0
20260508173036 70 197 1.0 3.0 0.00 0.41 0.01 49 1016.0
20260508171504 69 13 0.0 5.0 0.00 0.41 0.01 53 1016.0
20260508170024 70 166 1.0 5.0 0.00 0.41 0.01 53 1016.2
20260508164552 69 221 0.0 8.0 0.00 0.41 0.01 54 1016.5
20260508163024 68 158 0.0 8.0 0.00 0.41 0.01 53 1016.8
20260508161554 69 113 0.0 2.0 0.00 0.41 0.01 55 1016.9
20260508160014 67 276 1.0 5.0 0.00 0.49 0.01 54 1017.0
20260508154544 68 216 0.0 3.0 0.00 0.49 0.01 51 1017.3
20260508153018 67 139 1.0 5.0 0.00 0.49 0.01 57 1017.3
20260508151538 66 321 1.0 5.0 0.00 0.49 0.01 55 1017.4
20260508150055 65 105 1.0 6.0 0.00 0.49 0.01 65 1017.3
20260508144524 65 20 2.0 7.0 0.00 0.65 0.01 61 1017.2
20260508143101 64 18 0.0 4.0 0.00 0.65 0.01 70 1017.2
20260508141606 63 337 0.0 6.0 0.00 0.65 0.01 69 1017.1
20260508140025 61 281 0.0 9.0 0.00 0.69 0.01 76 1016.9
20260508134545 60 326 3.0 7.0 0.00 0.69 0.01 77 1016.9
20260508133104 59 52 4.0 11.0 0.00 0.69 0.01 76 1016.9
20260508131524 58 353 2.0 7.0 0.00 0.69 0.01 82 1016.8
20260508130037 57 328 1.0 5.0 0.01 0.69 0.01 85 1016.8
20260508124505 56 313 2.0 7.0 0.01 0.69 0.01 86 1016.7
20260508123023 55 1 2.0 4.0 0.01 0.69 0.01 90 1016.5
20260508121536 54 23 0.0 6.0 0.01 0.69 0.01 93 1016.4
20260508120058 52 337 3.0 6.0 0.00 0.68 0.00 97 1016.1
20260508114511 52 321 1.0 4.0 0.00 0.68 0.00 98 1016.0
20260508113031 51 46 1.0 4.0 0.00 0.68 0.00 98 1015.8
20260508111556 50 343 0.0 2.0 0.00 0.68 0.00 98 1015.5
20260508110026 49 354 0.0 1.0 0.00 0.72 0.00 98 1015.4
20260508104543 49 358 0.0 0.0 0.00 0.72 0.00 98 1015.3
20260508103100 48 360 0.0 0.0 0.00 0.72 0.00 97 1015.0
20260508103004 49 360 0.0 0.0 0.00 0.72 0.00 97 1014.9
20260508101531 49 360 0.0 4.0 0.00 0.72 0.00 97 1014.6
20260508094510 50 355 0.0 0.0 0.00 0.74 0.00 97 1014.3
20260508093042 50 355 0.0 0.0 0.00 0.74 0.00 97 1014.3
20260508091607 51 355 0.0 0.0 0.00 0.74 0.00 97 1014.3
20260508090018 52 355 0.0 2.0 0.00 0.88 0.00 97 1014.0
20260508084539 52 45 0.0 0.0 0.00 0.88 0.00 97 1013.9
20260508083017 52 15 0.0 0.0 0.00 0.88 0.00 97 1013.8
20260508081553 52 15 0.0 0.0 0.00 0.88 0.00 97 1013.9
20260508080012 52 312 0.0 0.0 0.00 0.91 0.00 97 1013.7
20260508074534 53 1 0.0 0.0 0.00 0.91 0.00 97 1013.5
20260508073104 53 354 0.0 2.0 0.00 0.91 0.00 97 1013.4
20260508071521 53 30 0.0 0.0 0.00 0.91 0.00 98 1013.3
20260508070047 53 360 0.0 0.0 0.00 0.91 0.00 98 1013.3
20260508064528 52 360 0.0 0.0 0.00 0.91 0.00 98 1013.2
20260508063045 52 360 0.0 0.0 0.00 0.91 0.00 98 1013.1
20260508061519 52 360 0.0 0.0 0.00 0.91 0.00 97 1013.2
20260508054534 52 360 0.0 0.0 0.00 1.12 0.00 97 1013.1
20260508053049 52 356 0.0 0.0 0.00 1.12 0.00 97 1012.9
20260508051513 52 355 0.0 2.0 0.00 1.12 0.00 97 1013.0
20260508050032 52 354 0.0 0.0 0.00 1.20 0.00 97 1012.9
20260508044559 53 290 0.0 0.0 0.00 1.20 0.00 97 1013.0
20260508043032 53 290 0.0 0.0 0.00 1.20 0.00 97 1013.0
20260508041551 53 288 0.0 0.0 0.00 1.20 0.00 97 1013.0
20260508040017 53 288 0.0 0.0 0.00 1.20 1.20 97 1012.8
20260508034536 53 316 0.0 0.0 0.00 1.20 1.20 97 1012.6
20260508033056 53 302 0.0 3.0 0.00 1.20 1.20 97 1012.2
20260508031517 53 37 0.0 0.0 0.00 1.20 1.20 97 1012.0
20260508030045 53 14 0.0 0.0 0.00 1.20 1.20 96 1011.8
20260508024519 53 12 0.0 0.0 0.00 1.20 1.20 96 1011.9
20260508023036 53 22 0.0 0.0 0.00 1.20 1.20 96 1011.7
20260508021506 53 331 0.0 2.0 0.00 1.20 1.20 96 1011.5
20260508020036 53 301 0.0 0.0 0.00 1.20 1.20 96 1011.5
20260508014620 53 300 0.0 1.0 0.02 1.20 1.20 96 1011.4
20260508014502 53 300 0.0 1.0 0.02 1.20 1.20 96 1011.2
20260508013031 53 328 0.0 0.0 0.14 1.20 1.20 96 1010.5
20260508011504 53 319 0.0 2.0 0.15 1.20 1.20 96 1010.9
20260508010041 53 41 0.0 3.0 0.15 1.20 1.20 96 1010.7
20260508004558 53 98 0.0 5.0 0.13 1.18 1.18 95 1010.7
20260508003011 54 52 1.0 3.0 0.01 1.06 1.06 93 1010.6
20260508001545 54 150 0.0 4.0 0.00 1.05 1.05 93 1009.3
20260508000013 54 281 0.0 1.0 0.00 1.05 1.05 94 1009.3
20260507234535 54 293 1.0 7.0 0.00 1.05 1.05 93 1009.3
20260507233002 54 32 2.0 7.0 0.00 1.05 1.05 93 1009.6
20260507231523 54 328 2.0 7.0 0.00 1.05 1.05 93 1009.3
20260507230049 54 159 3.0 9.0 0.00 1.05 1.05 93 1009.0
20260507224514 54 343 2.0 6.0 0.00 1.05 1.05 94 1008.9
20260507223038 54 354 0.0 4.0 0.00 1.05 1.05 95 1008.8
20260507221502 54 23 1.0 4.0 0.00 1.05 1.05 95 1008.7
20260507220021 53 289 2.0 14.0 0.00 1.05 1.05 95 1008.8
20260507214548 54 346 5.0 10.0 0.01 1.05 1.05 95 1008.5
20260507213007 55 38 5.0 12.0 0.03 1.05 1.05 96 1008.4
20260507211538 55 49 2.0 14.0 0.12 1.05 1.05 96 1008.1
20260507210100 56 328 6.0 12.0 0.19 1.05 1.05 96 1007.9
20260507204524 56 353 2.0 10.0 0.23 1.04 1.04 96 1007.8
20260507203039 56 24 3.0 9.0 0.20 1.01 1.02 96 1007.6
20260507201602 57 347 3.0 9.0 0.14 0.95 0.95 96 1007.3
20260507200009 58 328 5.0 10.0 0.04 0.85 0.85 95 1007.4
20260507194538 59 29 3.0 11.0 0.00 0.81 0.81 95 1007.6
20260507193005 60 345 5.0 12.0 0.00 0.81 0.81 95 1007.1
20260507191529 61 335 5.0 12.0 0.00 0.81 0.81 95 1007.2
20260507190042 62 345 2.0 11.0 0.01 0.81 0.81 95 1006.6
20260507184558 63 342 3.0 8.0 0.01 0.81 0.81 93 1007.2
20260507183012 66 1 5.0 13.0 0.01 0.81 0.81 90 1006.8